Home   Weather   Horten   Past weeks
Flag for Norway

Past Weather in Horten, Norway — Yesterday and Last 2 Weeks

Now
50 °F

Low clouds.


Feels Like: 44 °F
Forecast: 55 / 47 °F
Wind: 20 mph from Southwest

Location: Oseberg

Current Time: May 22, 2019 at 6:59:03 pm

Latest Report: May 22, 2019 at 6:20 pm


Visibility: N/A

Pressure: 29.74 "Hg

Humidity: 94%

Dew Point: 48 °F

Location of HortenLocation

Past Weather in Horten — Graph

°F

Horten Temperature Yesterday

Maximum temperature yesterday: 54 °F (at 4:20 pm)
Minimum temperature yesterday: 46 °F (at 12:50 am)
Average temperature yesterday: 49 °F

High & Low Weather Summary for the Past Weeks

 TemperatureHumidityPressure
High64 °F (May 17, 3:20 pm)100% (May 14, 4:50 am)30.69 "Hg (May 14, 4:50 am)
Low36 °F (May 8, 1:50 am)37% (May 17, 3:20 pm)29.53 "Hg (May 9, 1:50 pm)
Average48 °F80%30.07 "Hg
* Reported May 7 5:20 pm — May 22 5:50 pm, Horten. Weather by CustomWeather, © 2019

Note: Actual official high and low records may vary slightly from our data, if they occured in-between our weather recording intervals... More about our weather records

Advertising

Horten Weather History for the Previous 24 Hours

Scroll right to see more
 ConditionsComfort  
Time TempWeatherWind HumidityBarometerVisibility
5:50 pm
Wed, May 22
50 °FLow clouds.20 mph94%29.74 "Hg5 mi
5:20 pm50 °FLow clouds.17 mph94%29.74 "Hg5 mi
4:50 pm50 °FLow clouds.16 mph94%29.74 "Hg5 mi
4:20 pm50 °FFog.15 mph94%29.74 "Hg2 mi
3:50 pm50 °FFog.13 mph94%29.74 "Hg1 mi
3:20 pm50 °FFog.12 mph94%29.74 "Hg2 mi
2:50 pm50 °FFog.12 mph94%29.74 "Hg1 mi
2:20 pm50 °FFog.10 mph94%29.74 "Hg0 mi
1:50 pm52 °FFog.6 mph88%29.74 "Hg0 mi
1:20 pm52 °FFog.7 mph94%29.74 "Hg0 mi
12:50 pm50 °FFog.6 mph100%29.74 "Hg0 mi
12:20 pm52 °FFog.7 mph94%29.74 "Hg0 mi
11:50 am52 °FFog.3 mph94%29.74 "Hg0 mi
11:20 am52 °FFog.2 mph94%29.77 "Hg0 mi
10:50 am52 °FFog.2 mph94%29.77 "Hg0 mi
10:20 am52 °FFog.3 mph94%29.74 "Hg0 mi
9:50 am52 °FFog.3 mph94%29.74 "Hg1 mi
9:20 am52 °FFog.1 mph94%29.74 "Hg2 mi
8:50 am52 °FFog.No wind94%29.74 "Hg2 mi
8:20 am52 °FFog.2 mph94%29.77 "Hg2 mi
7:50 am50 °FFog.6 mph100%29.77 "Hg2 mi
7:20 am52 °FFog.7 mph94%29.77 "Hg2 mi
6:50 am52 °FSprinkles. Fog.8 mph94%29.77 "Hg2 mi
5:50 am52 °FLight rain. Fog.7 mph94%29.77 "Hg2 mi
4:50 am52 °FLight rain. Low clouds.13 mph94%29.77 "Hg4 mi
3:50 am52 °FLight rain. Overcast.7 mph88%29.80 "Hg4 mi
2:50 am52 °FLight rain. Overcast.8 mph88%29.80 "Hg4 mi
1:50 am52 °FLight rain. Passing clouds.9 mph88%29.80 "Hg4 mi
12:50 am50 °FLow clouds.12 mph94%29.83 "Hg5 mi
11:50 pm
Tue, May 21
50 °FLow clouds.10 mph94%29.83 "Hg4 mi
11:20 pm50 °FLow clouds.14 mph100%29.83 "Hg4 mi
9:50 pm52 °FPartly sunny.13 mph94%29.86 "Hg4 mi
9:20 pm52 °FPartly sunny.14 mph94%29.86 "Hg4 mi
8:50 pm52 °FPartly sunny.14 mph94%29.86 "Hg4 mi
8:20 pm52 °FBroken clouds.15 mph94%29.86 "Hg4 mi
7:50 pm52 °FPassing clouds.16 mph94%29.86 "Hg5 mi
7:20 pm52 °FPassing clouds.17 mph94%29.86 "Hg5 mi
6:50 pm52 °FScattered clouds.16 mph94%29.86 "Hg4 mi
6:20 pm52 °FScattered clouds.16 mph100%29.86 "Hg4 mi
Weather by CustomWeather, © 2019

See weather overview